[Iaude] MPEC S01: 2019 RX3 [a=2.43,e=0.61,i=8.3,H=22.0]

mpec at marsden.cfa.harvard.edu mpec at marsden.cfa.harvard.edu
Mon Sep 16 04:49:59 EDT 2019


M.P.E.C. 2019-S01                            Issued 2019 September 16, 08:48 UT

     The Minor Planet Electronic Circulars contain information on unusual
         minor planets and routine data on comets.  They are published
    on behalf of Division F of the International Astronomical Union by the
          Minor Planet Center, Smithsonian Astrophysical Observatory,
                          Cambridge, MA 02138, U.S.A.

             Prepared using the Tamkin Foundation Computer Network

                              MPC at CFA.HARVARD.EDU
            URL https://www.minorplanetcenter.net/    ISSN 1523-6714

                                    2019 RX3                                    


Observations:
     K19R03X* C2019 09 11.39731 00 36 06.556+36 46 05.42         20.6 iUES001F51
     K19R03X  C2019 09 11.40663 00 36 05.310+36 45 55.39         20.4 iUES001F51
     K19R03X  C2019 09 11.41603 00 36 04.045+36 45 45.39         20.9 iUES001F51
     K19R03X KC2019 09 12.01294200 34 51.45 +36 34 18.2          20.8 GVES001L01
     K19R03X KC2019 09 12.01820100 34 50.80 +36 34 12.1          21.0 GVES001L01
     K19R03X KC2019 09 12.02347400 34 50.16 +36 34 05.9          21.0 GVES001L01
     K19R03X KC2019 09 12.22947400 34 26.62 +36 30 14.0          20.8 VuES001H21
     K19R03X KC2019 09 12.23557000 34 25.87 +36 30 07.0          21.2 VuES001H21
     K19R03X KC2019 09 12.23874100 34 25.43 +36 30 03.7          20.9 VuES001H21
     K19R03X KC2019 09 14.84566700 29 30.61 +35 39 22.3          20.9 GVES001J95
     K19R03X KC2019 09 14.88410100 29 26.22 +35 38 38.5          21.0 GVES001J95
     K19R03X pC2019 09 15.82612100 27 45.48 +35 19 59.1          21.2 GVES001L01
     K19R03X pC2019 09 15.83458700 27 44.53 +35 19 49.4          21.2 GVES001L01
     K19R03X pC2019 09 15.84309800 27 43.49 +35 19 39.4          21.0 GVES001L01

Observer details:
F51 Pan-STARRS 1, Haleakala.  Observers J. Bulger, T. Lowe, A. Schultz, M. 
   Willman.  Measurers K. Chambers, S. Chastel, T. de Boer, L. Denneau, J. 
   Fairlamb, H. Flewelling, M. Huber, C.-C. Lin, E. Magnier, Y. Ramanjooloo, R. 
   Wainscoat, R. Weryk.  1.8-m Ritchey-Chretien + CCD.
H21 Astronomical Research Observatory, Westfield.  Observer R. Holmes.  
    Measurers S. Foglia, L. Buzzi, T. Linder, R. Holmes.  1.3-m f/4.0 
   astrograph + CCD.
J95 Great Shefford.  Observer P. Birtwhistle.  0.41-m f/6.3 Schmidt-Cassegrain 
   + CCD.
L01 Visnjan Observatory, Tican.  Observers K. Korlevic, I. Lyon.  Measurer K. 
   Korlevic.  1.0-m f/2.9 reflector + CCD.

Orbital elements:
2019 RX3                                                 Earth MOID = 0.0377 AU
Epoch 2019 Apr. 27.0 TT = JDT 2458600.5                 Veres
M 338.91747              (2000.0)            P               Q
n   0.26023900     Peri.  345.75368     +0.35934673     +0.92566534
a   2.4297101      Node   305.17625     -0.84139638     +0.26651015
e   0.6078458      Incl.    8.32725     -0.40363605     +0.26854424
P   3.79           H   22.0           G   0.15           U   8
Residuals in seconds of arc
190911 F51  0.1-  0.1+    190912 L01  0.9+  0.4-    190914 J95  0.4-  0.2-
190911 F51  0.0   0.0     190912 H21  0.5-  0.1+    190915 L01  0.8+  0.3-
190911 F51  0.1+  0.0     190912 H21  0.0   0.2-    190915 L01  0.7+  0.4-
190912 L01  0.1-  0.1-    190912 H21  0.3-  0.0     190915 L01  0.4-  0.8-
190912 L01  0.4+  0.2-    190914 J95  0.1+  0.6+

Ephemeris:
2019 RX3                 a,e,i = 2.43, 0.61, 8                   q = 0.9528
Date    TT    R. A. (2000) Decl.     Delta      r    Elong.  Phase     V
2019 08 17    01 58 05.3 +42 48 11   0.1326  1.0415    99.0    73.8    20.3
...
2019 09 01    01 00 34.2 +39 42 25   0.2107  1.1343   121.6    49.3    20.7
...
2019 09 09    00 41 05.4 +37 30 02   0.2543  1.1918   131.7    39.1    21.0
...
2019 09 15    00 29 12.4 +35 36 36   0.2891  1.2375   138.6    32.5    21.1
2019 09 16    00 27 25.7 +35 16 43   0.2951  1.2453   139.7    31.5    21.2
2019 09 17    00 25 42.2 +34 56 37   0.3013  1.2532   140.8    30.5    21.2
...
2019 09 23    00 16 30.1 +32 52 09   0.3399  1.3010   146.6    25.1    21.4
...
2019 10 01    00 07 15.1 +30 01 40   0.3977  1.3665   152.5    19.8    21.7
...
2019 10 16    23 58 54.0 +25 05 00   0.5297  1.4922   154.3    16.8    22.4

                      (Last issue was M.P.E.C. 2019-R118)                       

A. U. Tomatic                (C) Copyright 2019 MPC           M.P.E.C. 2019-S01




More information about the Iaude mailing list